| time (UTC) | temp F | wind direction | speed MPH | gust MPH | rain 1hr in | rain 24hr in | rain mn in | humidity % | barometer mb |
| 20260506221544 | 57 | 259 | 3.0 | 9.0 | 0.00 | 0.00 | 0.00 | 84 | 1023.2 |
| 20260506220042 | 57 | 0 | 2.0 | 10.0 | 0.00 | 0.00 | 0.00 | 83 | 1022.9 |
| 20260506214540 | 58 | 276 | 3.0 | 9.0 | 0.00 | 0.00 | 0.00 | 80 | 1022.9 |
| 20260506213036 | 58 | 0 | 1.0 | 7.0 | 0.00 | 0.00 | 0.00 | 79 | 1022.8 |
| 20260506211542 | 59 | 0 | 2.0 | 6.0 | 0.00 | 0.00 | 0.00 | 76 | 1022.9 |
| 20260506210044 | 59 | 226 | 0.0 | 4.0 | 0.00 | 0.00 | 0.00 | 77 | 1022.7 |
| 20260506204541 | 58 | 257 | 1.0 | 4.0 | 0.00 | 0.00 | 0.00 | 77 | 1022.7 |
| 20260506203048 | 58 | 300 | 2.0 | 6.0 | 0.00 | 0.00 | 0.00 | 78 | 1022.6 |
| 20260506201559 | 58 | 289 | 1.0 | 4.0 | 0.00 | 0.00 | 0.00 | 79 | 1022.6 |
| 20260506200040 | 58 | 268 | 1.0 | 6.0 | 0.00 | 0.00 | 0.00 | 77 | 1022.6 |
| 20260506194540 | 58 | 227 | 2.0 | 5.0 | 0.00 | 0.00 | 0.00 | 77 | 1022.6 |
| 20260506193050 | 58 | 0 | 2.0 | 8.0 | 0.00 | 0.00 | 0.00 | 78 | 1022.6 |
| 20260506191543 | 57 | 272 | 2.0 | 7.0 | 0.00 | 0.00 | 0.00 | 78 | 1022.6 |
| 20260506190040 | 57 | 281 | 3.0 | 8.0 | 0.00 | 0.00 | 0.00 | 79 | 1022.6 |
| 20260506184547 | 57 | 259 | 2.0 | 7.0 | 0.00 | 0.00 | 0.00 | 79 | 1022.5 |
| 20260506183042 | 57 | 242 | 1.0 | 6.0 | 0.00 | 0.00 | 0.00 | 80 | 1022.5 |
| 20260506181541 | 57 | 0 | 2.0 | 6.0 | 0.00 | 0.00 | 0.00 | 80 | 1022.3 |
| 20260506180040 | 57 | 272 | 2.0 | 6.0 | 0.00 | 0.00 | 0.00 | 80 | 1022.2 |
| 20260506174541 | 57 | 270 | 1.0 | 6.0 | 0.00 | 0.00 | 0.00 | 80 | 1022.0 |
| 20260506173054 | 57 | 0 | 0.0 | 4.0 | 0.00 | 0.00 | 0.00 | 81 | 1021.9 |
| 20260506171550 | 56 | 209 | 0.0 | 3.0 | 0.00 | 0.00 | 0.00 | 81 | 1021.9 |
| 20260506170045 | 56 | 0 | 0.0 | 3.0 | 0.00 | 0.00 | 0.00 | 82 | 1021.8 |
| 20260506164543 | 55 | 207 | 0.0 | 3.0 | 0.00 | 0.00 | 0.00 | 83 | 1021.6 |
| 20260506163058 | 55 | 153 | 1.0 | 4.0 | 0.00 | 0.00 | 0.00 | 82 | 1021.6 |
| 20260506161544 | 55 | 166 | 0.0 | 4.0 | 0.00 | 0.00 | 0.00 | 83 | 1021.6 |
| 20260506160042 | 55 | 0 | 1.0 | 3.0 | 0.00 | 0.00 | 0.00 | 84 | 1021.6 |
| 20260506154552 | 55 | 0 | 0.0 | 2.0 | 0.00 | 0.00 | 0.00 | 87 | 1021.5 |
| 20260506153042 | 54 | 159 | 1.0 | 4.0 | 0.00 | 0.00 | 0.00 | 88 | 1021.3 |
| 20260506151543 | 54 | 0 | 0.0 | 3.0 | 0.00 | 0.00 | 0.00 | 90 | 1021.3 |
| 20260506150042 | 53 | 191 | 1.0 | 3.0 | 0.00 | 0.00 | 0.00 | 91 | 1021.0 |
| 20260506144540 | 53 | 0 | 0.0 | 3.0 | 0.00 | 0.00 | 0.00 | 91 | 1020.8 |
| 20260506143041 | 53 | 0 | 1.0 | 5.0 | 0.00 | 0.00 | 0.00 | 91 | 1020.8 |
| 20260506141548 | 53 | 0 | 0.0 | 2.0 | 0.00 | 0.00 | 0.00 | 91 | 1021.0 |
| 20260506140053 | 53 | 0 | 0.0 | 2.0 | 0.00 | 0.00 | 0.00 | 91 | 1021.2 |
| 20260506134541 | 53 | 0 | 0.0 | 3.0 | 0.00 | 0.00 | 0.00 | 91 | 1021.0 |
| 20260506133040 | 53 | 0 | 0.0 | 2.0 | 0.00 | 0.00 | 0.00 | 91 | 1021.1 |
| 20260506131541 | 53 | 0 | 0.0 | 3.0 | 0.00 | 0.00 | 0.00 | 91 | 1020.7 |
| 20260506130041 | 53 | 184 | 0.0 | 3.0 | 0.00 | 0.00 | 0.00 | 91 | 1020.6 |
| 20260506124545 | 53 | 0 | 0.0 | 2.0 | 0.00 | 0.00 | 0.00 | 91 | 1020.6 |
| 20260506123043 | 53 | 0 | 0.0 | 2.0 | 0.00 | 0.00 | 0.00 | 91 | 1020.4 |
| 20260506121543 | 53 | 0 | 0.0 | 3.0 | 0.00 | 0.00 | 0.00 | 91 | 1020.4 |
| 20260506120045 | 53 | 0 | 0.0 | 3.0 | 0.00 | 0.00 | 0.00 | 91 | 1020.3 |
| 20260506114550 | 53 | 0 | 0.0 | 2.0 | 0.00 | 0.00 | 0.00 | 90 | 1020.2 |
| 20260506113042 | 53 | 0 | 0.0 | 2.0 | 0.00 | 0.00 | 0.00 | 90 | 1020.0 |
| 20260506111543 | 53 | 0 | 1.0 | 3.0 | 0.00 | 0.00 | 0.00 | 89 | 1020.1 |
| 20260506110041 | 53 | 0 | 0.0 | 2.0 | 0.00 | 0.00 | 0.00 | 89 | 1020.0 |
| 20260506104544 | 54 | 0 | 0.0 | 3.0 | 0.00 | 0.00 | 0.00 | 89 | 1019.9 |
| 20260506103040 | 54 | 271 | 0.0 | 3.0 | 0.00 | 0.00 | 0.00 | 88 | 1019.7 |
| 20260506101537 | 54 | 251 | 0.0 | 3.0 | 0.00 | 0.00 | 0.00 | 88 | 1019.6 |
| 20260506100047 | 54 | 248 | 1.0 | 3.0 | 0.00 | 0.00 | 0.00 | 88 | 1019.5 |
| 20260506094546 | 54 | 254 | 0.0 | 3.0 | 0.00 | 0.00 | 0.00 | 87 | 1019.4 |
| 20260506093102 | 54 | 243 | 0.0 | 4.0 | 0.00 | 0.00 | 0.00 | 87 | 1019.3 |
| 20260506091545 | 54 | 261 | 0.0 | 3.0 | 0.00 | 0.00 | 0.00 | 87 | 1019.1 |
| 20260506090042 | 54 | 271 | 0.0 | 3.0 | 0.00 | 0.00 | 0.00 | 87 | 1019.1 |
| 20260506084536 | 54 | 0 | 0.0 | 3.0 | 0.00 | 0.00 | 0.00 | 87 | 1019.0 |
| 20260506083045 | 54 | 246 | 0.0 | 4.0 | 0.00 | 0.00 | 0.00 | 86 | 1018.9 |
| 20260506081541 | 55 | 270 | 0.0 | 4.0 | 0.00 | 0.00 | 0.00 | 86 | 1018.9 |
| 20260506073042 | 55 | 0 | 0.0 | 1.0 | 0.00 | 0.00 | 0.00 | 86 | 1018.5 |
| 20260506071544 | 55 | 0 | 0.0 | 2.0 | 0.00 | 0.00 | 0.00 | 86 | 1018.4 |
| 20260506061555 | 55 | 138 | 0.0 | 1.0 | 0.00 | 0.00 | 0.00 | 85 | 1018.1 |
| 20260506044542 | 55 | 288 | 1.0 | 4.0 | 0.00 | 0.00 | 0.00 | 84 | 1018.2 |
| 20260506043040 | 55 | 271 | 0.0 | 4.0 | 0.00 | 0.00 | 0.00 | 84 | 1017.9 |
| 20260506041557 | 55 | 0 | 0.0 | 3.0 | 0.00 | 0.00 | 0.00 | 84 | 1017.8 |
| 20260506040051 | 56 | 288 | 1.0 | 7.0 | 0.00 | 0.00 | 0.00 | 83 | 1017.7 |
| 20260506034541 | 56 | 284 | 2.0 | 6.0 | 0.00 | 0.00 | 0.00 | 83 | 1017.7 |
| 20260506033043 | 56 | 289 | 2.0 | 4.0 | 0.00 | 0.00 | 0.00 | 83 | 1017.3 |
| 20260506031543 | 56 | 279 | 1.0 | 5.0 | 0.00 | 0.00 | 0.00 | 82 | 1017.1 |
| 20260506030037 | 56 | 297 | 1.0 | 4.0 | 0.00 | 0.00 | 0.00 | 82 | 1017.1 |
| 20260506024544 | 56 | 276 | 2.0 | 8.0 | 0.00 | 0.00 | 0.00 | 82 | 1017.1 |
| 20260506023051 | 56 | 342 | 2.0 | 7.0 | 0.00 | 0.00 | 0.00 | 82 | 1017.1 |
| 20260506021541 | 57 | 350 | 2.0 | 7.0 | 0.00 | 0.00 | 0.00 | 81 | 1016.9 |
| 20260506020110 | 57 | 343 | 1.0 | 8.0 | 0.00 | 0.00 | 0.00 | 81 | 1017.0 |
| 20260506014541 | 57 | 344 | 2.0 | 8.0 | 0.00 | 0.00 | 0.00 | 81 | 1016.9 |
| 20260506013040 | 58 | 350 | 3.0 | 7.0 | 0.00 | 0.00 | 0.00 | 80 | 1016.7 |
| 20260506011547 | 58 | 265 | 3.0 | 9.0 | 0.00 | 0.00 | 0.00 | 79 | 1016.8 |
| 20260506010043 | 58 | 284 | 3.0 | 9.0 | 0.00 | 0.00 | 0.00 | 80 | 1016.8 |
| 20260506004544 | 58 | 360 | 3.0 | 10.0 | 0.00 | 0.00 | 0.00 | 79 | 1016.9 |
| 20260506003043 | 58 | 355 | 3.0 | 11.0 | 0.00 | 0.00 | 0.00 | 79 | 1016.9 |
| 20260506001547 | 58 | 360 | 2.0 | 9.0 | 0.00 | 0.00 | 0.00 | 80 | 1017.0 |
| 20260506000059 | 59 | 321 | 3.0 | 9.0 | 0.00 | 0.00 | 0.00 | 79 | 1016.9 |
| 20260505234540 | 59 | 329 | 4.0 | 10.0 | 0.00 | 0.00 | 0.00 | 78 | 1017.0 |
| 20260505233048 | 60 | 296 | 3.0 | 10.0 | 0.00 | 0.00 | 0.00 | 78 | 1016.8 |
| 20260505231551 | 60 | 0 | 3.0 | 8.0 | 0.00 | 0.00 | 0.00 | 77 | 1017.0 |
| 20260505230047 | 61 | 331 | 3.0 | 9.0 | 0.00 | 0.00 | 0.00 | 76 | 1017.2 |
| 20260505224547 | 61 | 348 | 2.0 | 6.0 | 0.00 | 0.00 | 0.00 | 76 | 1017.2 |
| 20260505223041 | 61 | 0 | 2.0 | 9.0 | 0.00 | 0.00 | 0.00 | 75 | 1017.3 |